Weather History for Sussex, NJ

Change the Weather History Date:

Sunday, November 10, 2013

  Actual Average Record
Temperature  
Mean Temperature 46 °F -  
Max Temperature 57 °F 53 °F 76 °F (1975)
Min Temperature 35 °F 31 °F 16 °F (1992)
Degree Days  
Heating Degree Days 19    
Moisture  
Dew Point 31 °F    
Average Humidity 61    
Maximum Humidity 82    
Minimum Humidity 40    
Precipitation  
Precipitation 0.03 in - - ()
Sea Level Pressure  
Sea Level Pressure 29.93 in    
Wind  
Wind Speed 6 mph (WSW)    
Max Wind Speed 14 mph    
Max Gust Speed 29 mph    
Visibility 10 miles    
Events Rain    
Averages and records for this station are not official NWS values.
T = Trace of Precipitation, MM = Missing Value Source: NWS Daily Summary

Daily Weather History Graph

Daily Weather History Graph

Search for Another Location

Airport:

Trip Planner

Search our weather history database for the weather conditions in past years. The results will help you decide how hot, cold, wet, or windy it might be!

Date:

Astronomy

Nov. 10, 2013 Rise Set
Actual Time 6:40 AM EST 4:43 PM EST
Civil Twilight 6:11 AM EST 5:12 PM EST
Nautical Twilight 5:38 AM EST 5:45 PM EST
Astronomical Twilight 5:05 AM EST 6:18 PM EST
Moon 12:51 PM EST (11/10) No Moon Set
Length of Visible Light 11h 01m
Length of Day
10h 02m
First Quarter, 55% of the Moon is Illuminated
Nov 10
First Quarter
Nov 17
Full
Nov 25
Last Quarter
Dec 2
New
Dec 9
First Quarter

Hourly Weather History & Observations

Time (EST) Temp. Windchill Dew Point Humidity Pressure Visibility Wind Dir Wind Speed Gust Speed Precip Events Conditions
12:53 AM 43.0 °F 40.3 °F 30.9 °F 62% 29.94 in 10.0 mi SW 4.6 mph - N/A   Overcast
1:53 AM 41.0 °F 39.0 °F 30.9 °F 67% 29.93 in 10.0 mi SW 3.5 mph - N/A   Mostly Cloudy
2:53 AM 39.0 °F 36.8 °F 30.0 °F 70% 29.92 in 10.0 mi SW 3.5 mph - N/A   Mostly Cloudy
3:53 AM 39.9 °F 35.1 °F 30.9 °F 70% 29.91 in 10.0 mi SW 6.9 mph - N/A   Overcast
4:53 AM 37.9 °F 35.5 °F 30.9 °F 76% 29.90 in 10.0 mi SW 3.5 mph - N/A   Partly Cloudy
5:53 AM 36.0 °F 33.3 °F 30.0 °F 79% 29.90 in 10.0 mi SW 3.5 mph - N/A   Partly Cloudy
6:53 AM 35.1 °F - 30.0 °F 82% 29.90 in 10.0 mi Calm Calm - N/A   Mostly Cloudy
7:53 AM 39.0 °F 35.7 °F 30.9 °F 73% 29.90 in 10.0 mi SSW 4.6 mph - N/A   Overcast
8:53 AM 42.1 °F 38.4 °F 30.9 °F 65% 29.89 in 10.0 mi SSW 5.8 mph - N/A   Mostly Cloudy
9:53 AM 51.1 °F - 33.1 °F 50% 29.86 in 10.0 mi SW 6.9 mph - N/A   Clear
10:53 AM 57.0 °F - 33.1 °F 40% 29.83 in 10.0 mi WSW 10.4 mph 24.2 mph N/A   Mostly Cloudy
11:53 AM 54.0 °F - 32.0 °F 43% 29.83 in 10.0 mi Variable 6.9 mph 17.3 mph N/A   Overcast
12:53 PM 46.9 °F - 37.0 °F 68% 29.87 in 10.0 mi NNW 8.1 mph - 0.00 in Rain Light Rain
1:53 PM 45.0 °F 40.1 °F 37.9 °F 76% 29.90 in 10.0 mi West 9.2 mph - 0.03 in Rain Light Rain
2:53 PM 46.0 °F 41.0 °F 35.1 °F 66% 29.90 in 10.0 mi West 10.4 mph 21.9 mph 0.00 in   Mostly Cloudy
3:53 PM 48.0 °F - 34.0 °F 58% 29.93 in 10.0 mi Variable 4.6 mph 17.3 mph N/A   Mostly Cloudy
4:53 PM 45.0 °F 42.6 °F 34.0 °F 65% 29.95 in 10.0 mi Variable 4.6 mph - 0.00 in   Mostly Cloudy
5:53 PM 46.9 °F - 30.9 °F 54% 29.96 in 10.0 mi West 12.7 mph 28.8 mph N/A   Mostly Cloudy
6:53 PM 46.9 °F - 28.9 °F 50% 29.97 in 10.0 mi WSW 10.4 mph 24.2 mph N/A   Partly Cloudy
7:53 PM 46.9 °F - 28.9 °F 50% 29.98 in 10.0 mi West 13.8 mph 28.8 mph N/A   Clear
8:53 PM 46.0 °F 41.0 °F 28.9 °F 51% 30.00 in 10.0 mi West 10.4 mph 23.0 mph N/A   Partly Cloudy
9:53 PM 46.0 °F 40.2 °F 28.0 °F 50% 30.02 in 10.0 mi West 12.7 mph 20.7 mph N/A   Overcast
10:53 PM 45.0 °F 40.6 °F 28.0 °F 52% 30.03 in 10.0 mi West 8.1 mph - N/A   Mostly Cloudy
11:53 PM 44.1 °F 39.5 °F 27.0 °F 51% 30.05 in 10.0 mi WNW 8.1 mph - N/A   Scattered Clouds